Content
SEND FEEDBACK

Daily
Averages
Monthly
Summary
United States of America

HAZLETON, PENNSYLVANIA


Home > North America > United States > Pennsylvania
Elevation: 1785 feet     Latitude: 41 01N     Longitude: 075 54W

WEATHER
 
SELECT A DAY
Number of Records: 215,992;   Date Range: 1/1/95 - 8/25/14
 
SHARE

PRINT THIS DATA

[ ← Previous Day ]
WEATHER ALMANAC - FEBRUARY 12, 2014
[ Next Day → ]
[ °C ]   °F
Weather ElementAverageHighLow
Temperature12 °F23 °F (4:54 pm)-5.1 °F (6:54 am)
Dewpoint-0.3 °F7 °F (11:54 pm)-9.9 °F (6:54 am)
Humidity60.2 %83 % (3:54 am)32 % (4:54 pm)
Barometer30.42 in30.54 in (6:54 am)30.21 in (11:50 pm)
Wind Speed3.5 mph8.1 mph (4:54 pm)
Wind Gust21.9 mph (4:54 pm)
Weather ElementAverage
Visibility9.6 mi
Wind DirectionENE (71.6 °)

Weather ElementTotal
Precipitation---
Heating Degree Days56.1 (Base 65)
Averaged from 25 records on February 12, 2014
WEATHER CONDITIONS BREAKOUT
WIND DIRECTION BREAKOUT
WEATHER BY HOUR - FEBRUARY 12, 2014
[ °C ]   °F
Local TimeTemperatureDewpointHumidityBarometerVisibilityWind DirectionWind SpeedGust SpeedPrecipitationEventsConditions
1:54 AM5.0 °F-0.9 °F76 %30.50 in10.0 miVariable4.6 mphClear
2:54 AM5.0 °F-2.0 °F73 %30.50 in10.0 miVariable4.6 mphClear
3:54 AM-2.0 °F-6.0 °F83 %30.51 in10.0 miSE (140°)3.5 mphClear
4:54 AM0.0 °F-5.1 °F79 %30.51 in10.0 miVariable4.6 mphClear
5:54 AM-2.9 °F-7.1 °F82 %30.49 in10.0 miSSE (160°)5.8 mphClear
6:54 AM-5.1 °F-9.9 °F80 %30.54 in9.0 miCalmClear
7:54 AM-2.0 °F-7.1 °F79 %30.54 in10.0 miCalmClear
8:54 AM1.0 °F-5.1 °F75 %30.53 in9.0 miWNW (290°)3.5 mph0.00 inClear
9:54 AM5.0 °F-2.9 °F70 %30.51 in7.0 miCalm0.00 inSnowLight Snow
10:54 AM10.0 °F1.0 °F67 %30.52 in7.0 miWSW (250°)4.6 mph0.00 inSnowLight Snow
11:54 AM14.0 °F1.9 °F59 %30.51 in9.0 miNNE (20°)3.5 mph0.00 inSnowLight Snow
12:54 PM18.0 °F3.0 °F52 %30.45 in10.0 miWest (280°)3.5 mph0.00 inClear
1:54 PM21.0 °F3.9 °F48 %30.40 in10.0 miCalm0.00 inClear
2:54 PM21.9 °F5.0 °F48 %30.40 in10.0 miCalmClear
3:54 PM21.9 °F3.0 °F44 %30.39 in10.0 miCalmClear
4:54 PM23.0 °F-2.9 °F32 %30.39 in10.0 miSouth (170°)8.1 mph21.9 mphClear
5:54 PM19.9 °F-2.9 °F37 %30.37 in10.0 miSouth (180°)8.1 mphClear
6:54 PM18.0 °F-2.0 °F41 %30.37 in10.0 miSouth (190°)8.1 mphClear
7:54 PM18.0 °F1.0 °F48 %30.36 in10.0 miVariable3.5 mphClear
8:54 PM17.1 °F1.9 °F52 %30.34 in10.0 miNE (40°)3.5 mphClear
9:35 PM17.6 °F3.2 °F53 %30.27 in10.0 miCalmMostly Cloudy
9:54 PM18.0 °F3.0 °F52 %30.32 in10.0 miCalmMostly Cloudy
10:54 PM18.0 °F5.0 °F57 %30.30 in10.0 miVariable3.5 mphOvercast
11:50 PM19.4 °F6.8 °F58 %30.21 in10.0 miNE (40°)8.1 mphOvercast
11:54 PM19.0 °F7.0 °F59 %30.25 in10.0 miNNE (30°)6.9 mphOvercast
Hourly data recorded from KAVP, located miles away from Hazleton, Pennsylvania







STORIES FROM OUR PARTNERS